EN

Hourly Weather Klagenfurt

Today, 4 December, Friday

Time Temperature Precipitation Wind Pressure Humidity
00:00 -5°C° 0 mm 0 mps 678 mmHg 96%
01:00 -4°C° 0 mm 0 mps 678 mmHg 94%
02:00 -4°C° 0 mm 0 mps 678 mmHg 94%
03:00 -4°C° 0 mm 0 mps 677 mmHg 95%
04:00 -4°C° 0 mm 0 mps 677 mmHg 96%
05:00 -4°C° 0 mm 0 mps 677 mmHg 95%
06:00 -4°C° 0 mm 0 mps 677 mmHg 95%
07:00 -3°C° 0 mm 1 mps 677 mmHg 95%
08:00 -2°C° 0 mm 1 mps 678 mmHg 93%
09:00 0°C° 0 mm 1 mps 678 mmHg 92%
10:00 +1°C° 0 mm 1 mps 678 mmHg 91%
11:00 +1°C° 0 mm 1 mps 678 mmHg 90%
12:00 +2°C° 0 mm 1 mps 678 mmHg 89%
13:00 +3°C° 0 mm 1 mps 678 mmHg 89%
14:00 +2°C° 0 mm 1 mps 678 mmHg 91%
15:00 +1°C° 0 mm 1 mps 677 mmHg 93%
16:00 +1°C° 0 mm 1 mps 677 mmHg 96%
17:00 +1°C° 0.1 mm 1 mps 677 mmHg 96%
18:00 +1°C° 0.1 mm 1 mps 677 mmHg 96%
19:00 +1°C° 0.1 mm 1 mps 677 mmHg 97%
20:00 +1°C° 0.3 mm 1 mps 677 mmHg 97%
21:00 +1°C° 0.3 mm 1 mps 677 mmHg 97%
22:00 +1°C° 0.3 mm 1 mps 677 mmHg 97%
23:00 +1°C° 0.8 mm 1 mps 677 mmHg 97%

Tomorrow, 5 December, Saturday

Time Temperature Precipitation Wind Pressure Humidity
00:00 +2°C° 0.8 mm 1 mps 677 mmHg 97%
01:00 +2°C° 0.8 mm 1 mps 677 mmHg 98%
02:00 +2°C° 1.5 mm 1 mps 677 mmHg 98%
03:00 +3°C° 1.5 mm 1 mps 677 mmHg 98%
04:00 +3°C° 1.5 mm 1 mps 677 mmHg 98%
05:00 +2°C° 1.8 mm 2 mps 678 mmHg 98%
06:00 +2°C° 1.8 mm 2 mps 678 mmHg 98%
07:00 +2°C° 1.8 mm 2 mps 678 mmHg 98%
08:00 +4°C° 0.6 mm 1 mps 678 mmHg 98%
09:00 +4°C° 0.6 mm 1 mps 679 mmHg 98%
10:00 +5°C° 0.6 mm 1 mps 679 mmHg 98%
11:00 +5°C° 0.3 mm 1 mps 679 mmHg 98%
12:00 +4°C° 0.3 mm 2 mps 679 mmHg 98%
13:00 +4°C° 0.3 mm 2 mps 679 mmHg 98%
14:00 +4°C° 0.3 mm 2 mps 679 mmHg 98%
15:00 +3°C° 0.3 mm 2 mps 679 mmHg 98%
16:00 +3°C° 0.3 mm 2 mps 678 mmHg 98%
17:00 +3°C° 0.7 mm 2 mps 679 mmHg 98%
18:00 +3°C° 0.7 mm 2 mps 679 mmHg 98%
19:00 +4°C° 0.7 mm 1 mps 679 mmHg 98%
20:00 +4°C° 1 mm 1 mps 680 mmHg 98%
21:00 +3°C° 1 mm 2 mps 680 mmHg 98%
22:00 +3°C° 1 mm 2 mps 680 mmHg 98%
23:00 +3°C° 0.8 mm 2 mps 680 mmHg 98%

Day after tomorrow, 6 December, Sunday

Time Temperature Precipitation Wind Pressure Humidity
00:00 +3°C° 0.8 mm 2 mps 680 mmHg 98%
01:00 +3°C° 0.8 mm 2 mps 680 mmHg 98%
02:00 +4°C° 2 mm 1 mps 680 mmHg 98%
03:00 +4°C° 2 mm 1 mps 679 mmHg 98%
04:00 +4°C° 2 mm 1 mps 679 mmHg 98%
05:00 +4°C° 1.5 mm 1 mps 679 mmHg 98%
06:00 +4°C° 1.5 mm 1 mps 679 mmHg 98%
07:00 +5°C° 1.5 mm 1 mps 679 mmHg 98%
08:00 +5°C° 0.7 mm 1 mps 679 mmHg 98%
09:00 +5°C° 0.7 mm 1 mps 678 mmHg 98%
10:00 +5°C° 0.7 mm 1 mps 678 mmHg 98%
11:00 +5°C° 2.3 mm 1 mps 678 mmHg 98%
12:00 +5°C° 2.3 mm 1 mps 677 mmHg 98%
13:00 +4°C° 2.3 mm 1 mps 677 mmHg 98%
14:00 +4°C° 1.7 mm 1 mps 676 mmHg 98%
15:00 +4°C° 1.7 mm 1 mps 676 mmHg 98%
16:00 +4°C° 1.7 mm 1 mps 675 mmHg 98%
17:00 +4°C° 2.1 mm 1 mps 675 mmHg 98%
18:00 +4°C° 2.1 mm 1 mps 675 mmHg 98%
19:00 +4°C° 2.1 mm 1 mps 674 mmHg 98%
20:00 +4°C° 2.1 mm 1 mps 674 mmHg 98%
21:00 +4°C° 2.1 mm 1 mps 674 mmHg 98%
22:00 +4°C° 2.1 mm 1 mps 675 mmHg 98%
23:00 +4°C° 1.6 mm 1 mps 675 mmHg 98%

7 December, Monday

Time Temperature Precipitation Wind Pressure Humidity
00:00 +4°C° 1.6 mm 1 mps 675 mmHg 98%
01:00 +4°C° 1.6 mm 1 mps 675 mmHg 99%
02:00 +4°C° 1.2 mm 1 mps 675 mmHg 98%
03:00 +4°C° 1.2 mm 1 mps 676 mmHg 98%
04:00 +3°C° 1.2 mm 1 mps 676 mmHg 98%
05:00 +3°C° 0.2 mm 1 mps 676 mmHg 98%
06:00 +3°C° 0.2 mm 1 mps 677 mmHg 97%
07:00 +2°C° 0.2 mm 1 mps 677 mmHg 97%
08:00 +3°C° 0.1 mm 1 mps 678 mmHg 96%
09:00 +3°C° 0.1 mm 1 mps 678 mmHg 96%
10:00 +4°C° 0.1 mm 1 mps 679 mmHg 95%
11:00 +4°C° 0.3 mm 1 mps 679 mmHg 95%
12:00 +4°C° 0.3 mm 1 mps 679 mmHg 95%
13:00 +4°C° 0.3 mm 1 mps 679 mmHg 96%
14:00 +4°C° 0.3 mm 1 mps 679 mmHg 96%
15:00 +4°C° 0.3 mm 1 mps 679 mmHg 96%
16:00 +3°C° 0.3 mm 1 mps 680 mmHg 97%
17:00 +3°C° 0.4 mm 1 mps 680 mmHg 97%
18:00 +3°C° 0.4 mm 1 mps 680 mmHg 97%
19:00 +2°C° 0.4 mm 0 mps 680 mmHg 97%
20:00 +2°C° 0.9 mm 0 mps 680 mmHg 97%
21:00 +2°C° 0.9 mm 0 mps 680 mmHg 98%
22:00 +2°C° 0.9 mm 0 mps 681 mmHg 98%
23:00 +2°C° 0.8 mm 0 mps 680 mmHg 98%

8 December, Tuesday

Time Temperature Precipitation Wind Pressure Humidity
00:00 +2°C° 0.8 mm 0 mps 680 mmHg 98%
01:00 +1°C° 0.8 mm 0 mps 680 mmHg 98%
02:00 +3°C° 0.2 mm 1 mps 680 mmHg 98%
03:00 +3°C° 0.2 mm 1 mps 679 mmHg 98%
04:00 +3°C° 0.2 mm 1 mps 679 mmHg 98%
05:00 +3°C° 0.3 mm 1 mps 679 mmHg 97%
06:00 +3°C° 0.3 mm 1 mps 678 mmHg 97%
07:00 +2°C° 0.3 mm 2 mps 678 mmHg 96%
08:00 +2°C° 1.9 mm 1 mps 678 mmHg 97%
09:00 +2°C° 1.9 mm 1 mps 678 mmHg 98%
10:00 +2°C° 1.9 mm 1 mps 678 mmHg 99%
11:00 +2°C° 0.9 mm 1 mps 678 mmHg 99%
12:00 +3°C° 0.9 mm 1 mps 678 mmHg 99%
13:00 +3°C° 0.9 mm 1 mps 678 mmHg 99%
14:00 +3°C° 1 mm 1 mps 678 mmHg 99%
15:00 +2°C° 1 mm 1 mps 678 mmHg 99%
16:00 +1°C° 1 mm 0 mps 678 mmHg 99%
17:00 +2°C° 0.8 mm 1 mps 678 mmHg 99%
18:00 +2°C° 0.8 mm 1 mps 678 mmHg 99%
19:00 +2°C° 0.8 mm 1 mps 679 mmHg 99%
20:00 +2°C° 0.1 mm 1 mps 679 mmHg 98%
21:00 +2°C° 0.1 mm 1 mps 679 mmHg 98%
22:00 +1°C° 0.1 mm 1 mps 679 mmHg 97%
23:00 +1°C° 0 mm 1 mps 679 mmHg 96%

9 December, Wednesday

Time Temperature Precipitation Wind Pressure Humidity
00:00 0°C° 0 mm 1 mps 679 mmHg 95%
01:00 -1°C° 0 mm 0 mps 679 mmHg 95%
02:00 -2°C° 0 mm 0 mps 679 mmHg 94%
03:00 -2°C° 0 mm 0 mps 679 mmHg 93%
04:00 -3°C° 0 mm 0 mps 679 mmHg 92%
05:00 -3°C° 0 mm 0 mps 679 mmHg 91%
06:00 -2°C° 0 mm 1 mps 679 mmHg 90%
07:00 -2°C° 0 mm 1 mps 679 mmHg 89%
08:00 -1°C° 0 mm 1 mps 679 mmHg 89%
09:00 -1°C° 0 mm 0 mps 680 mmHg 88%
10:00 0°C° 0 mm 0 mps 680 mmHg 87%
11:00 +1°C° 0 mm 1 mps 680 mmHg 88%
12:00 +2°C° 0 mm 1 mps 679 mmHg 89%
13:00 +2°C° 0 mm 1 mps 679 mmHg 90%
14:00 +2°C° 0 mm 1 mps 678 mmHg 91%
15:00 +1°C° 0 mm 1 mps 678 mmHg 92%
16:00 +1°C° 0 mm 1 mps 678 mmHg 93%
17:00 +1°C° 0.1 mm 1 mps 678 mmHg 93%
18:00 0°C° 0.1 mm 1 mps 678 mmHg 93%
19:00 0°C° 0.1 mm 1 mps 678 mmHg 94%
20:00 0°C° 0.5 mm 1 mps 678 mmHg 94%
21:00 +1°C° 0.5 mm 1 mps 678 mmHg 95%
22:00 +1°C° 0.5 mm 1 mps 678 mmHg 95%
23:00 +1°C° 0.4 mm 1 mps 678 mmHg 95%
Show more

We Need Your Consent

Meteoprog and our Service Providers may store and access personal data such as cookies, device identifiers or other similar technologies on your device and process such data to personalise content and ads, as well as provide social media features and to analyse the traffic.

  • Store and/or access information on your device

    Cookies, device identifiers or other information can be stored or accessed on your device for the purposes indicated above.

  • Personalised ads and content, ad and content measurement, audience insights, and products development

    Ads and content can be personalised based on a profile. More data can be added to better personalise ads and content. Ad and content performance can be measured. Insights about the audience who saw the ads and content can be derived. Such data can be used to develop or improve user’s experience, systems and software.

By clicking ‘I Agree’ you will allow the use of indicated cookies, device identifiers, web beacons or other similar technologies. Your settings can be changed in the browser on your device.

For certain purposes, legitimate interests may be relied on, rather than consent. You can read more about this in our Privacy and Cookie Policy.